This is the latest recevied weather packets stored in our database for station/object KD5GAT-51. If no packets are shown the sender has not sent any weather packets the latest 10 day(s).
| Time | Temp. | Humidity | Pressure | Rain* | Wind** | Luminosity | Snow |
|---|---|---|---|---|---|---|---|
| 1778002840 | 29.44° C | 81% | 1011.2 hPa | - | - | - | - |
| 1778001940 | 27.78° C | 91% | 1011.4 hPa | - | - | - | - |
| 1778001040 | 27.22° C | 97% | 1011.3 hPa | - | - | - | - |
| 1778000139 | 26.67° C | 100% | 1011.4 hPa | - | - | - | - |
| 1777999239 | 26.11° C | 100% | 1011.4 hPa | - | - | - | - |
| 1777998339 | 25.56° C | 100% | 1011.4 hPa | - | - | - | - |
| 1777997439 | 24.44° C | 100% | 1011.4 hPa | - | - | - | - |
| 1777996539 | 24.44° C | 100% | 1011.6 hPa | - | - | - | - |
| 1777995639 | 23.89° C | 100% | 1011.6 hPa | - | - | - | - |
| 1777994738 | 23.89° C | 100% | 1011.4 hPa | - | - | - | - |
| 1777993838 | 23.33° C | 100% | 1011.3 hPa | - | - | - | - |
| 1777992938 | 22.78° C | 100% | 1011.4 hPa | - | - | - | - |
| 1777992038 | 22.78° C | 100% | 1011.5 hPa | - | - | - | - |
| 1777991138 | 22.22° C | 100% | 1011.3 hPa | - | - | - | - |
| 1777989337 | 21.67° C | 100% | 1011.4 hPa | - | - | - | - |
| 1777988437 | 21.67° C | 100% | 1011.6 hPa | - | - | - | - |
| 1777987537 | 21.11° C | 100% | 1011.5 hPa | - | - | - | - |
| 1777986637 | 21.11° C | 100% | 1011.4 hPa | - | - | - | - |
| 1777985737 | 21.11° C | 100% | 1011.2 hPa | - | - | - | - |
| 1777984837 | 21.11° C | 100% | 1011 hPa | - | - | - | - |
| 1777983936 | 20.56° C | 100% | 1010.7 hPa | - | - | - | - |
| 1777983036 | 20.56° C | 100% | 1010.6 hPa | - | - | - | - |
| 1777982136 | 20.56° C | 100% | 1010.4 hPa | - | - | - | - |
| 1777981236 | 20.56° C | 100% | 1010.3 hPa | - | - | - | - |
| 1777980336 | 20.56° C | 100% | 1010.2 hPa | - | - | - | - |
* Rain since midnight (hover to see other rain measurements)
** Current wind speed in m/s (hover to see current wind gust speed)